GW1990 Weather Reports


Display with metric or nautical units.
time (UTC)temp
F
wind
direction
speed
MPH
gust
MPH
rain 1hr
in
rain 24hr
in
rain mn
in
humidity
%
barometer
mb
20260504081933 58 89 2.0 2.0 0.00 0.17 0.17 97 994.3
20260504081430 58 96 1.0 1.0 0.00 0.17 0.17 97 994.1
20260504080926 58 89 1.0 1.0 0.00 0.17 0.17 97 993.8
20260504080423 58 88 1.0 2.0 0.00 0.17 0.17 97 993.9
20260504070351 58 49 0.0 0.0 0.00 0.17 0.17 97 995.3
20260504050738 62 64 0.0 1.0 0.00 0.00 0.00 70 993.6
20260504050235 62 68 0.0 0.0 0.00 0.00 0.00 69 993.5
20260504045732 63 85 0.0 1.0 0.00 0.00 0.00 69 993.3
20260504045227 63 100 1.0 1.0 0.00 0.00 0.00 68 993.4
20260504044725 62 138 2.0 3.0 0.00 0.00 0.00 68 993.5
20260504044222 63 60 0.0 0.0 0.00 0.00 0.00 68 993.6
20260504043720 63 102 0.0 0.0 0.00 0.00 0.00 69 994.0
20260504043216 63 108 1.0 1.0 0.00 0.00 0.00 68 994.1
20260504042714 63 104 1.0 1.0 0.00 0.00 0.00 68 994.4
20260504042210 63 88 0.0 1.0 0.00 0.00 0.00 67 994.2
20260504041706 63 83 1.0 2.0 0.00 0.00 0.00 68 994.3
20260504041202 63 78 1.0 1.0 0.00 0.00 0.00 67 994.7
20260504040659 64 249 2.0 2.0 0.00 0.00 0.00 66 994.5
20260504040156 64 116 0.0 1.0 0.00 0.00 0.00 66 994.4
20260504035652 64 335 0.0 1.0 0.00 0.00 0.00 65 994.4
20260504035150 64 64 1.0 2.0 0.00 0.00 0.00 66 994.4
20260504034647 64 49 0.0 1.0 0.00 0.00 0.00 66 994.7
20260504034144 64 91 1.0 2.0 0.00 0.00 0.00 65 994.4
20260504033642 64 224 2.0 3.0 0.00 0.00 0.00 65 994.6
20260504033139 64 71 0.0 0.0 0.00 0.00 0.00 66 994.5
20260504032635 64 209 2.0 3.0 0.00 0.00 0.00 65 994.7
20260504032133 64 117 1.0 1.0 0.00 0.00 0.00 65 994.7
20260504031630 64 273 2.0 3.0 0.00 0.00 0.00 65 994.7
20260504031126 64 255 1.0 2.0 0.00 0.00 0.00 66 994.6
20260504030623 64 354 0.0 1.0 0.00 0.00 0.00 66 994.7
20260504030120 64 231 2.0 2.0 0.00 0.00 0.00 65 994.5
20260504025616 64 228 2.0 2.0 0.00 0.00 0.00 66 994.6
20260504025113 63 145 1.0 2.0 0.00 0.00 0.00 66 994.6
20260504024611 63 8 1.0 1.0 0.00 0.00 0.00 67 994.5
20260504024107 64 69 0.0 0.0 0.00 0.00 0.00 67 994.6
20260504023604 64 80 1.0 1.0 0.00 0.00 0.00 65 994.3
20260504023059 64 113 2.0 3.0 0.00 0.00 0.00 64 994.4
20260504022556 65 108 2.0 2.0 0.00 0.00 0.00 63 994.5
20260504022052 65 146 2.0 3.0 0.00 0.00 0.00 62 994.4
20260504021550 65 68 2.0 2.0 0.00 0.00 0.00 62 994.4
20260504021046 65 172 3.0 3.0 0.00 0.00 0.00 61 994.7
20260504020543 65 139 2.0 2.0 0.00 0.00 0.00 61 994.4
20260504020040 66 132 2.0 2.0 0.00 0.00 0.00 61 994.5
20260504015537 66 103 3.0 3.0 0.00 0.00 0.00 61 994.4
20260504015032 66 158 0.0 2.0 0.00 0.00 0.00 62 994.5
20260504014529 66 174 0.0 1.0 0.00 0.00 0.00 61 994.5
20260504014026 66 69 0.0 1.0 0.00 0.00 0.00 61 994.5
20260504013524 66 103 2.0 2.0 0.00 0.00 0.00 59 994.6
20260504013020 67 180 2.0 3.0 0.00 0.00 0.00 59 994.2
20260504012518 67 177 3.0 3.0 0.00 0.00 0.00 58 994.3
20260504012016 67 159 3.0 3.0 0.00 0.00 0.00 59 994.1
20260504011512 67 170 1.0 2.0 0.00 0.00 0.00 58 994.3
20260504011008 67 72 1.0 2.0 0.00 0.00 0.00 59 994.4
20260504010504 67 173 2.0 2.0 0.00 0.00 0.00 59 994.3
20260504010000 67 83 0.0 0.0 0.00 0.00 0.00 60 994.3
20260504005457 67 74 0.0 1.0 0.00 0.00 0.00 59 994.4
20260504004954 68 138 2.0 2.0 0.00 0.00 0.00 56 994.4
20260504004452 69 75 0.0 0.0 0.00 0.00 0.00 54 994.3
20260504003949 69 38 3.0 3.0 0.00 0.00 0.00 53 994.3
20260504003445 69 302 2.0 2.0 0.00 0.00 0.00 53 994.5
20260504002942 69 77 2.0 3.0 0.00 0.00 0.00 52 994.3
20260504002439 69 72 1.0 2.0 0.00 0.00 0.00 52 994.5
20260504001936 69 86 0.0 0.0 0.00 0.00 0.00 52 994.7
20260504001433 70 126 1.0 1.0 0.00 0.00 0.00 52 994.5
20260504000930 70 228 3.0 3.0 0.00 0.00 0.00 51 994.7
20260504000427 70 108 1.0 1.0 0.00 0.00 0.00 50 994.6
20260503235924 71 109 1.0 2.0 0.00 0.00 0.00 50 994.7
20260503235422 71 23 3.0 5.0 0.00 0.00 0.00 50 994.4
20260503234919 71 167 3.0 3.0 0.00 0.00 0.00 49 994.4
20260503234417 72 75 1.0 2.0 0.00 0.00 0.00 48 994.7
20260503233915 72 201 1.0 3.0 0.00 0.00 0.00 48 994.9
20260503233411 73 130 1.0 1.0 0.00 0.00 0.00 48 994.9
20260503232908 73 113 2.0 2.0 0.00 0.00 0.00 47 995.0
20260503232405 73 170 2.0 5.0 0.00 0.00 0.00 46 994.8
20260503231902 73 155 2.0 3.0 0.00 0.00 0.00 45 995.2
20260503231400 73 83 1.0 2.0 0.00 0.00 0.00 46 995.1
20260503230855 73 109 1.0 1.0 0.00 0.00 0.00 47 995.1
20260503230352 73 79 4.0 6.0 0.00 0.00 0.00 45 995.0
20260503225850 73 109 3.0 5.0 0.00 0.00 0.00 45 995.0
20260503225346 73 293 2.0 3.0 0.00 0.00 0.00 44 995.2
20260503224842 73 58 1.0 2.0 0.00 0.00 0.00 46 995.4
20260503224339 73 185 1.0 2.0 0.00 0.00 0.00 44 995.2
20260503223837 73 264 1.0 2.0 0.00 0.00 0.00 45 995.3
20260503223335 73 115 4.0 7.0 0.00 0.00 0.00 43 995.6
20260503222830 74 165 3.0 5.0 0.00 0.00 0.00 45 995.3
20260503222329 73 97 2.0 2.0 0.00 0.00 0.00 44 995.3
20260503221826 73 170 2.0 3.0 0.00 0.00 0.00 45 995.4
20260503221325 73 287 4.0 6.0 0.00 0.00 0.00 43 995.3
20260503220821 73 166 2.0 5.0 0.00 0.00 0.00 44 995.2
20260503220318 73 259 3.0 5.0 0.00 0.00 0.00 44 995.3
20260503215814 73 118 2.0 3.0 0.00 0.00 0.00 43 995.2
20260503215312 73 70 3.0 3.0 0.00 0.00 0.00 43 995.6
20260503214810 73 239 3.0 6.0 0.00 0.00 0.00 43 995.6
20260503214306 73 309 4.0 6.0 0.00 0.00 0.00 44 995.7
20260503213804 73 236 3.0 3.0 0.00 0.00 0.00 43 995.8
20260503213301 73 181 8.0 11.0 0.00 0.00 0.00 41 995.8
20260503212758 73 87 3.0 5.0 0.00 0.00 0.00 48 995.5
20260503212256 73 299 5.0 6.0 0.00 0.00 0.00 43 995.8
20260503211753 73 206 3.0 5.0 0.00 0.00 0.00 42 995.6
20260503211249 73 263 3.0 5.0 0.00 0.00 0.00 43 995.8
20260503210744 73 180 1.0 2.0 0.00 0.00 0.00 43 995.6
20260503210242 73 223 3.0 3.0 0.00 0.00 0.00 43 996.0
20260503205742 73 181 2.0 6.0 0.00 0.00 0.00 43 996.0
20260503205239 73 61 4.0 7.0 0.00 0.00 0.00 43 996.0
20260503204736 72 191 3.0 3.0 0.00 0.00 0.00 44 996.4
20260503204233 72 294 3.0 3.0 0.00 0.00 0.00 44 996.5
20260503203731 72 223 4.0 6.0 0.00 0.00 0.00 43 996.7
20260503203228 72 187 2.0 2.0 0.00 0.00 0.00 46 996.7
20260503202725 72 5 2.0 5.0 0.00 0.00 0.00 45 996.9
20260503202223 72 253 4.0 6.0 0.00 0.00 0.00 44 996.9
20260503201721 72 275 3.0 6.0 0.00 0.00 0.00 45 997.1
20260503201218 71 81 4.0 8.0 0.00 0.00 0.00 45 997.2
20260503200714 71 213 2.0 3.0 0.00 0.00 0.00 45 997.2
20260503200211 71 274 5.0 8.0 0.00 0.00 0.00 44 997.5
20260503195707 71 296 5.0 6.0 0.00 0.00 0.00 45 997.7
20260503195204 71 234 3.0 3.0 0.00 0.00 0.00 47 998.0
20260503194701 71 241 5.0 7.0 0.00 0.00 0.00 45 998.2
20260503194157 71 291 4.0 6.0 0.00 0.00 0.00 48 998.3
20260503193654 70 248 3.0 3.0 0.00 0.00 0.00 46 998.2
20260503193149 70 227 4.0 5.0 0.00 0.00 0.00 47 998.3
20260503192645 69 187 3.0 5.0 0.00 0.00 0.00 49 998.4
20260503192141 70 267 6.0 9.0 0.00 0.00 0.00 47 998.8
20260503191638 70 167 3.0 5.0 0.00 0.00 0.00 47 998.8
20260503191135 69 78 3.0 5.0 0.00 0.00 0.00 47 998.7
20260503190632 69 257 5.0 7.0 0.00 0.00 0.00 49 998.7
20260503190128 69 103 7.0 10.0 0.00 0.00 0.00 47 998.8
20260503185625 69 193 4.0 5.0 0.00 0.00 0.00 46 999.1
20260503185120 68 221 2.0 3.0 0.00 0.00 0.00 49 999.2
20260503184615 69 132 4.0 6.0 0.00 0.00 0.00 48 999.5
20260503184112 70 353 5.0 8.0 0.00 0.00 0.00 46 999.6
20260503183609 69 82 5.0 7.0 0.00 0.00 0.00 46 999.9
20260503183106 69 252 5.0 7.0 0.00 0.00 0.00 50 999.8
20260503182605 68 237 4.0 6.0 0.00 0.00 0.00 51 1000.1
20260503182102 68 191 5.0 8.0 0.00 0.00 0.00 47 1000.3
20260503181559 68 25 3.0 3.0 0.00 0.00 0.00 50 1000.4
20260503181055 68 177 3.0 3.0 0.00 0.00 0.00 49 1000.1
20260503180553 67 233 3.0 5.0 0.00 0.00 0.00 49 1000.3
20260503180050 68 248 5.0 6.0 0.00 0.00 0.00 49 1000.6
20260503175547 68 259 4.0 6.0 0.00 0.00 0.00 50 1000.4
20260503175045 67 146 6.0 8.0 0.00 0.00 0.00 50 1000.5
20260503174542 66 233 3.0 3.0 0.00 0.00 0.00 49 1000.7
20260503174038 67 254 3.0 5.0 0.00 0.00 0.00 50 1000.8
20260503173533 67 58 3.0 5.0 0.00 0.00 0.00 51 1000.8
20260503173029 66 242 5.0 7.0 0.00 0.00 0.00 52 1000.9
20260503172527 66 275 5.0 7.0 0.00 0.00 0.00 52 1001.5
20260503172024 66 235 6.0 7.0 0.00 0.00 0.00 52 1001.7
20260503171521 66 261 1.0 3.0 0.00 0.00 0.00 55 1001.5
20260503171018 66 56 2.0 5.0 0.00 0.00 0.00 54 1001.6
20260503170514 65 135 3.0 5.0 0.00 0.00 0.00 55 1001.7
20260503150906 60 241 2.0 2.0 0.00 0.00 0.00 62 1003.7
20260503150403 60 209 3.0 3.0 0.00 0.00 0.00 64 1003.5
20260503131256 52 323 3.0 5.0 0.00 0.00 0.00 75 1004.2
20260503130754 52 101 3.0 3.0 0.00 0.00 0.00 75 1004.4
20260503130251 52 117 0.0 1.0 0.00 0.00 0.00 77 1004.3
20260503120217 48 238 1.0 2.0 0.00 0.00 0.00 84 1003.8
20260503110644 47 153 1.0 1.0 0.00 0.00 0.00 86 1003.3
20260503110142 47 119 1.0 1.0 0.00 0.00 0.00 86 1003.3
20260503100109 47 135 0.0 1.0 0.00 0.00 0.00 88 1003.5